Location: Cherry Grove
(44.1968°N, 92.8624°W)
Time: 17:18:28
(UTC-05:00)

OTV 5 (USA 277) - Visible Passes

Search period start: 18 October 2017 00:00
Search period end: 28 October 2017 00:00
Orbit: 404 x 417 km, 43.0° (Epoch: 07 September)

Date Brightness Start Highest point End Pass type
(mag) Time Alt. Az. Time Alt. Az. Time Alt. Az.
18 Oct ? 19:59:19 10° W 20:02:37 50° SSW 20:03:06 45° SSE visible
19 Oct ? 19:08:14 10° W 19:11:35 60° SSW 19:14:28 13° ESE visible
19 Oct ? 20:45:53 10° W 20:47:13 17° WSW 20:47:13 17° WSW visible
20 Oct ? 19:54:37 10° W 19:57:37 29° SSW 19:58:39 24° S visible
21 Oct ? 19:03:28 10° W 19:06:38 39° SSW 19:09:48 10° SE visible
21 Oct ? 20:42:28 10° SW 20:42:57 11° SW 20:42:57 11° SW visible
22 Oct ? 19:50:22 10° WSW 19:52:29 16° SSW 19:54:36 10° S visible
23 Oct ? 18:58:55 10° W 19:01:35 22° SSW 19:04:14 10° SSE visible
25 Oct ? 18:55:33 10° SW 18:56:23 11° SW 18:57:13 10° SSW visible
